Regional Weather Roundup
Issued by NWS

Home | Current Version | Previous Version | Text Only | Print | Product List | Glossary Off
Versions: 1 2 3 4 5 6 7 8 9 10 11 12 13 14 15 16 17 18 19 20 21 22 23 24 25 26 27 28 29 30 31 32 33 34 35 36 37 38 39 40 41 42 43 44 45 46 47 48 49 50

000
ASUS43 KOAX 221910
RWRNE

WEATHER ROUNDUP FOR NEBRASKA
NATIONAL WEATHER SERVICE OMAHA NE
100 PM CST MON JAN 22 2018

NOTES: SATELLITE DATA IS BEING USED TO AUGMENT CLOUD COVER ABOVE
       12000 FEET.
       "FAIR" INDICATES FEW OR NO CLOUDS BELOW 12,000 FEET WITH NO
       SIGNIFICANT WEATHER AND/OR OBSTRUCTIONS TO VISIBILITY.


NEZ001>004-019>022-054>056-222000-
NEBRASKA PANHANDLE

CITY           SKY/WX    TMP DP  RH WIND       PRES   REMARKS
SCOTTSBLUFF    SUNNY     27  15  61 W16       30.00F WCI  15
ALLIANCE       SUNNY     25  17  72 W10       29.96F WCI  15
CHADRON        SUNNY     23  13  65 NW20G28   30.01F WCI   8
GORDON         FAIR      27  17  64 W14       29.94F WCI  16
KIMBALL        SUNNY     29  17  61 NW24G33   29.96F WCI  15
SIDNEY         SUNNY     30  17  58 NW20G28   29.97F WCI  17
$$

NEZ057>060-069>072-079>082-222000-
SOUTHWEST NEBRASKA

CITY           SKY/WX    TMP DP  RH WIND       PRES   REMARKS
NORTH PLATTE   MIX PCPN  30  21  69 NW24      29.89F WCI  16
IMPERIAL       FLURRIES  30  20  66 NW24G32   29.92F WCI  16
LEXINGTON      CLOUDY    31  26  81 NW15      29.81F WCI  20
MCCOOK         MIX PCPN  31  24  75 NW28G37   29.87F WCI  17
OGALLALA       MOSUNNY   32  21  65 NW17      29.94S WCI  20
$$

NEZ005>010-023>029-035>040-094-222000-
NORTH CENTRAL NEBRASKA

CITY           SKY/WX    TMP DP  RH WIND       PRES   REMARKS
VALENTINE      PTSUNNY   30  22  72 NW15G23   29.90F WCI  19
AINSWORTH      CLOUDY    28  24  84 NW20      29.87F WCI  15
BROKEN BOW     CLOUDY    30  23  75 NW26G38   29.79F WCI  16
O`NEILL        CLOUDY    25  23  94 NW23G32   29.81S WCI   9
ORD            CLOUDY    29  23  78 N26G41    29.76S HAZE    WCI  14
THEDFORD       PTSUNNY   29  23  76 NW21G31   29.88F WCI  16
$$

NEZ041-046>049-061>064-073>077-083>087-222000-
SOUTH CENTRAL NEBRASKA

CITY           SKY/WX    TMP DP  RH WIND       PRES   REMARKS
GRAND ISLAND   FOG       27  26  96 NW35G45   29.67S VSB 1/2 WCI  10
AURORA         CLOUDY    28  28  97 NW40G51   29.64R WCI  10
HASTINGS       FOG       28  25  88 NW33G49   29.68R VSB 3/4 WCI  11
HEBRON         LGT SNOW  31  29  90 NW24G40   29.60R VSB 3/4 WCI  18
HOLDREGE       CLOUDY    32  27  81 NW10G18   29.76S WCI  24
YORK           SNOW      28  28 100 N24G33    29.59R VSB 1/2 WCI  14
$$

NEZ011>018-030>034-042>045-222000-
NORTHEAST NEBRASKA

CITY           SKY/WX    TMP DP  RH WIND       PRES   REMARKS
NORFOLK        FOG       24  23  96 NW36G49   29.61R VSB 1/2 WCI   6
ALBION         SNOW      26  24  89 NW32G44   29.67R VSB 1/4 WCI   9
BLAIR          SNOW      31  29  93 N29G39    29.44R VSB 1/2 WCI  16
COLUMBUS       SNOW      28  26  92 MISG      29.58F VSB 1/4
WAYNE            N/A     27  26  96 N37G46    29.60R WCI   9
$$

NEZ050>053-065>068-078-088>093-222000-
SOUTHEAST NEBRASKA

CITY           SKY/WX    TMP DP  RH WIND       PRES   REMARKS
LINCOLN        LGT SNOW  29  26  89 N35G48    29.51R VSB 3/4 WCI  12
OMAHA EPPLEY   LGT SNOW  33  31  92 N23G33    29.46R VSB 3/4 WCI  21
BEATRICE       LGT SNOW  32  29  90 N33G41    29.51S WCI  16
FALLS CITY     CLOUDY    33  32  96 NW18      29.40F FOG     WCI  22
NEBRASKA CITY  LGT SNOW  33  33 100 N24G31    29.40F WCI  20
PLATTSMOUTH    LGT SNOW  33  33 100 NW17G24   29.42S WCI  22
$$

NEZ044-045-051>053-067-222000-
OMAHA AREA

CITY           SKY/WX    TMP DP  RH WIND       PRES   REMARKS
OMAHA EPPLEY   LGT SNOW  33  31  92 N23G33    29.46R VSB 3/4 WCI  21
BLAIR          SNOW      31  29  93 N29G39    29.44R VSB 1/2 WCI  16
MILLARD        LGT SNOW  32  31  96 N18G30    29.47R VSB 1   WCI  21
OFFUTT AFB     LGT SNOW  33  32  94 NW15      29.44R VSB 1   WCI  23
PLATTSMOUTH    LGT SNOW  33  33 100 NW17G24   29.42S WCI  22
WAHOO            N/A     29  28  93 N39G47    29.50R WCI  12
$$




USA.gov is the U.S. government's official web portal to all federal, state and local government web resources and services.